Location: ????????
(55.0808°N, 38.5463°E)
Time: 11:23:18
(UTC+00:00)

S3M - Pass Details

Date: 14 April 2024
Orbit: 949 x 1003 km, 83.0° (Epoch: 18 May)

Event Time Altitude Azimuth Distance (km) Brightness Sun altitude
Rises 01:27:04 0° 348° (NNW) 3,639 7.2 -8.3°
Reaches altitude 10° 01:29:33 10° 349° (N) 2,693 6.6 -8.0°
Maximum altitude 01:35:44 86° 77° (ENE) 969 4.1 -7.2°
Drops below altitude 10° 01:41:56 10° 169° (S) 2,703 6.2 -6.4°
Sets 01:44:26 0° 170° (S) 3,654 6.8 -6.1°
